User: anonymous   Login
Location: ?
(35.6144°N, 139.6873°E)
Time: 10:02:37
(UTC+00:00)
Language:

Cosmos 1743 - Orbit

View from above orbital plane
View from above orbital plane
View from above satellite
View from above satellite

Ground track
Ground track

The orbit data is extracted from the following two-line orbital elements,

1 16719U 86034A   24203.83014109  .00014136  00000-0  50310-3 0  9999
2 16719  82.5482 323.0191 0008418 267.6555  92.3721 15.28808056 88431
Epoch (UTC): 21 July 2024 19:55:24
Eccentricity: 0.0008418
inclination: 82.5482°
perigee height: 473 km
apogee height: 485 km
right ascension of ascending node: 323.0191°
argument of perigee: 267.6555°
revolutions per day: 15.28808056
mean anomaly at epoch: 92.3721°
orbit number at epoch: 8843

The dashed part of the orbit path shows where the satellite is in the earth's shadow,  

DLR